This is the latest recevied weather packets stored in our database for station/object KD4WXI. If no packets are shown the sender has not sent any weather packets the latest 10 day(s).
| Time | Temp. | Humidity | Pressure | Rain* | Wind** | Luminosity | Snow |
|---|---|---|---|---|---|---|---|
| 1777611019 | 10° C | 73% | 1014.5 hPa | 0 mm | - | 0 W/m² | - |
| 1777610714 | 10° C | 82% | 1014.6 hPa | 0 mm | - | 0 W/m² | - |
| 1777610413 | 9.44° C | 76% | 1014.7 hPa | 0 mm | - | 0 W/m² | - |
| 1777610109 | 8.89° C | 77% | 1014.6 hPa | 0 mm | - | 0 W/m² | - |
| 1777609806 | 8.89° C | 81% | 1014.5 hPa | 0 mm | - | 0 W/m² | - |
| 1777609503 | 8.89° C | 84% | 1014.5 hPa | 0 mm | - | 0 W/m² | - |
| 1777609200 | 8.89° C | 84% | 1014.2 hPa | 0 mm | - | 0 W/m² | - |
| 1777608898 | 9.44° C | 83% | 1014.3 hPa | 0 mm | - | 0 W/m² | - |
| 1777608594 | 10° C | 82% | 1014.3 hPa | 0 mm | - | 0 W/m² | - |
| 1777608291 | 10° C | 82% | 1014.3 hPa | 0 mm | - | 0 W/m² | - |
| 1777607990 | 10° C | 81% | 1014.5 hPa | 0 mm | - | 0 W/m² | - |
| 1777607684 | 10° C | 81% | 1014.2 hPa | 0 mm | - | 0 W/m² | - |
| 1777607382 | 10° C | 81% | 1014.3 hPa | 0 mm | - | 0 W/m² | - |
| 1777607078 | 10° C | 79% | 1014.1 hPa | 0 mm | - | 0 W/m² | - |
| 1777606773 | 9.44° C | 77% | 1014 hPa | 0 mm | - | 0 W/m² | - |
| 1777606469 | 9.44° C | 76% | 1013.9 hPa | 0 mm | - | 0 W/m² | - |
| 1777606164 | 9.44° C | 81% | 1013.8 hPa | 0 mm | - | 0 W/m² | - |
| 1777605861 | 10° C | 78% | 1013.9 hPa | 0 mm | - | 0 W/m² | - |
| 1777605561 | 11.11° C | 76% | 1013.7 hPa | 0 mm | - | 0 W/m² | - |
| 1777605256 | 10.56° C | 76% | 1014 hPa | 0 mm | - | 0 W/m² | - |
| 1777604953 | 10.56° C | 69% | 1013.7 hPa | 0 mm | - | 0 W/m² | - |
| 1777604648 | 11.67° C | 74% | 1014.1 hPa | 0 mm | - | 0 W/m² | - |
| 1777604345 | 11.67° C | 69% | 1014 hPa | 0 mm | - | 0 W/m² | - |
| 1777604044 | 11.67° C | 59% | 1014 hPa | 0 mm | - | 0 W/m² | - |
| 1777603742 | 11.67° C | 65% | 1013.9 hPa | 0 mm | - | 0 W/m² | - |
* Rain latest hour (hover to see other rain measurements)
** Current wind speed in m/s (hover to see current wind gust speed)